"Pseudo-MPEC" for P129xek

Created 2025 Apr 28 3:31:07 UT using Find_Orb

Click here for an explanation of pseudo-MPECs

 
 Astrometry: 
     P129xek* C2025 04 27.26266911 09 00.773-06 40 54.51   ~4R8H 21.98wXNEOCPF51
     P129xek  C2025 04 27.27509411 09 01.144-06 40 29.87   ~4R8H 21.74wXNEOCPF51
     P129xek  C2025 04 27.28751211 09 01.519-06 40 05.57   ~4R8H 21.63wXNEOCPF51
     P129xek  C2025 04 27.35836211 09 03.653-06 37 45.76   ~4RN2 21.35GVNEOCPF51
     P129xek  C2025 04 27.35900311 09 03.677-06 37 44.35   ~4RN2 21.47GVNEOCPF51

Station data:
(F51) Pan-STARRS 1, Haleakala  (N20.707234 W156.255910)  US/Hawaii.
   Observers J. Bulger, T. Lowe, A. Schultz, M. Willman. Measurers K.
   Chambers, S. Chastel, T. de Boer, L. Denneau, J. Fairlamb, H. Flewelling,
   M. Huber, C.-C. Lin, E. Magnier, Y. Ramanjooloo, R. Wainscoat, R. Weryk.
   1.8-m Ritchey-Chrétien + CCD.

Orbital elements:  P129xek
   Perihelion 2025 Mar 1.23042 +/- 85.3 TT =  5:31:48 (JD 2460735.73042)
Epoch 2025 Apr 27.0 TT = JDT 2460792.5   Earth MOID: 0.1458   Ju: 0.2909
M   6.32059284 +/- 55               (J2000 ecliptic)             AutoNEOCP
n   0.11133766 +/- 0.274            Peri.  193.93849 +/- 110
a   4.27931869 +/- 7.01             Node   205.13738 +/- 60
e   0.9857692 +/- 0.276             Incl.   40.63436 +/- 18
P   8.85242                H 20.50  G  0.15   U 11.9  SR
q 0.06089798 +/- 0.673    Q 8.49773941 +/- 29.9
From 5 observations 2025 Apr. 27 (2.3 hr); mean residual 0".07
Residuals in arcseconds: 
250427 F51  .02+  .03+    250427 F51  .00   .15-    250427 F51  .04+  .09+    
250427 F51  .03-  .09+    250427 F51  .03-  .06-    

Ephemerides (geocentric):
Date (UTC) HH   RA             Dec           delta  r     elong  mag " sig PA
---- --------  ------------   ------------  ------ ------ -----  --- --------
2025 04 28 04  11 09 32.817   -06 12 05.21  .65280 1.5238 132.2 21.8  176  93
2025 04 28 05  11 09 34.310   -06 10 48.94  .65387 1.5245 132.1 21.8  184  93
2025 04 28 06  11 09 35.803   -06 09 32.95  .65493 1.5252 132.1 21.8  193  93
2025 04 28 07  11 09 37.298   -06 08 17.21  .65600 1.5260 132.0 21.8  202  93
2025 04 28 08  11 09 38.792   -06 07 01.75  .65706 1.5267 132.0 21.8  210  93
2025 04 28 09  11 09 40.287   -06 05 46.55  .65813 1.5274 132.0 21.8  219  93
2025 04 28 10  11 09 41.783   -06 04 31.61  .65920 1.5281 131.9 21.8  228  93
2025 04 28 11  11 09 43.280   -06 03 16.94  .66026 1.5289 131.9 21.8  237  93
2025 04 28 12  11 09 44.777   -06 02 02.52  .66133 1.5296 131.8 21.8  246  93
2025 04 28 13  11 09 46.274   -06 00 48.37  .66240 1.5303 131.8 21.8  255  93
2025 04 28 14  11 09 47.773   -05 59 34.47  .66347 1.5310 131.8 21.8  264  93
2025 04 28 15  11 09 49.271   -05 58 20.83  .66453 1.5318 131.7 21.8  273  93
2025 04 28 16  11 09 50.771   -05 57 07.45  .66560 1.5325 131.7 21.8  282  93
2025 04 28 17  11 09 52.271   -05 55 54.32  .66667 1.5332 131.7 21.8  291  93
2025 04 28 18  11 09 53.771   -05 54 41.45  .66774 1.5339 131.6 21.8  300  93
2025 04 28 19  11 09 55.272   -05 53 28.83  .66881 1.5347 131.6 21.8  309  94
2025 04 28 20  11 09 56.774   -05 52 16.46  .66988 1.5354 131.5 21.8  319  94
2025 04 28 21  11 09 58.277   -05 51 04.34  .67095 1.5361 131.5 21.8  328  94
2025 04 28 22  11 09 59.780   -05 49 52.48  .67202 1.5368 131.5 21.9  338  94
2025 04 28 23  11 10 01.283   -05 48 40.86  .67309 1.5375 131.4 21.9  347  94
2025 04 29 00  11 10 02.787   -05 47 29.49  .67416 1.5383 131.4 21.9  357  95
2025 04 29 01  11 10 04.292   -05 46 18.37  .67523 1.5390 131.4 21.9  366  95
2025 04 29 02  11 10 05.798   -05 45 07.49  .67630 1.5397 131.3 21.9  376  95
2025 04 29 03  11 10 07.304   -05 43 56.85  .67737 1.5404 131.3 21.9  386  96
2025 04 29 04  11 10 08.810   -05 42 46.46  .67844 1.5412 131.2 21.9  396  96
2025 04 29 05  11 10 10.318   -05 41 36.32  .67951 1.5419 131.2 21.9  406  96
2025 04 29 06  11 10 11.825   -05 40 26.41  .68058 1.5426 131.2 21.9  416  97
2025 04 29 07  11 10 13.334   -05 39 16.74  .68165 1.5433 131.1 21.9  426  97
2025 04 29 08  11 10 14.843   -05 38 07.32  .68273 1.5440 131.1 21.9  437  98
2025 04 29 09  11 10 16.353   -05 36 58.13  .68380 1.5448 131.0 21.9  447  98
2025 04 29 10  11 10 17.863   -05 35 49.18  .68487 1.5455 131.0 21.9  458  99
2025 04 29 11  11 10 19.374   -05 34 40.46  .68594 1.5462 131.0 21.9  468  99
2025 04 29 12  11 10 20.886   -05 33 31.99  .68702 1.5469 130.9 21.9  479 100
2025 04 29 13  11 10 22.398   -05 32 23.74  .68809 1.5476 130.9 21.9  490 100
2025 04 29 14  11 10 23.911   -05 31 15.73  .68916 1.5484 130.9 21.9  501 101
2025 04 29 15  11 10 25.425   -05 30 07.95  .69024 1.5491 130.8 21.9  512 102
2025 04 29 16  11 10 26.939   -05 29 00.40  .69131 1.5498 130.8 21.9  524 102
2025 04 29 17  11 10 28.454   -05 27 53.09  .69238 1.5505 130.7 21.9  535 103
2025 04 29 18  11 10 29.969   -05 26 46.00  .69346 1.5512 130.7 21.9  547 104
2025 04 29 19  11 10 31.485   -05 25 39.14  .69453 1.5520 130.7 21.9  559 104
2025 04 29 20  11 10 33.002   -05 24 32.51  .69561 1.5527 130.6 21.9  571 105
2025 04 29 21  11 10 34.520   -05 23 26.11  .69668 1.5534 130.6 22.0  583 106
2025 04 29 22  11 10 36.038   -05 22 19.93  .69776 1.5541 130.6 22.0  595 106
2025 04 29 23  11 10 37.556   -05 21 13.98  .69883 1.5548 130.5 22.0  608 107
2025 04 30 00  11 10 39.076   -05 20 08.25  .69991 1.5555 130.5 22.0  620 108
2025 04 30 01  11 10 40.596   -05 19 02.74  .70099 1.5563 130.4 22.0  633 109
2025 04 30 02  11 10 42.116   -05 17 57.45  .70206 1.5570 130.4 22.0  646 109
2025 04 30 03  11 10 43.638   -05 16 52.39  .70314 1.5577 130.4 22.0  660 110